Location: Northam
(31.6525°S, 116.6655°E)
Time: 05:37:00
(UTC+08:00)

N. Korean satellite - Pass Details

Date: 03 August 2021
Orbit: 448 x 499 km, 97.3° (Epoch: 17 September)

Event Time Altitude Azimuth Distance (km) Brightness Sun altitude
Rises 18:08:24 0° 187° (S) 2,555 10.1 -6.7°
Reaches altitude 10° 18:10:48 10° 202° (SSW) 1,677 9.4 -7.2°
Maximum altitude 18:13:35 21° 253° (WSW) 1,141 9.3 -7.8°
Drops below altitude 10° 18:16:22 10° 303° (WNW) 1,680 10.7 -8.4°
Sets 18:18:46 0° 319° (NW) 2,561 11.3 -8.9°
